Location: ?????
(30.2541°N, 31.0910°E)
Time: 07:47:13
(UTC+00:00)

Cosmos 1633 Rocket - Pass Details

Date: 08 April 2023
Orbit: 604 x 623 km, 82.5° (Epoch: 29 May)

Event Time Altitude Azimuth Distance (km) Brightness Sun altitude
Rises 01:11:18 0° 3° (N) 2,891 6.9 -30.5°
Reaches altitude 10° 01:13:39 10° 11° (N) 1,979 6.1 -30.1°
Maximum altitude 01:17:47 40° 81° (E) 904 4.2 -29.3°
Enters shadow 01:17:54 40° 86° (E) 905 4.2 -29.3°
